STARLINK-3985 (52644 NORAD) Tracking and Keplerian Element Data

This shows tracking and keplerian element data for the satellite.

Feedback or suggestion? Click here.




ElementValue
Catalog52644
NameSTARLINK-3985
Epoch Orbit1516
Epoch Day229.16667824
Epoch Year2022
RAAN337.535
Inclination53.2173
Eccentricity0.0001662
Argument of Perigee48.1021
Mean Anonmoly183.7979
Mean Motion15.18257805
Decay Rate-0.01074525
L11 52644U 22052AY 22229.16667824 -.01074525 00000+0 -55914-1 0 9999
L22 52644 53.2173 337.5350 0001662 48.1021 183.7979 15.18257805 15160

Live tracking and technical data element details for STARLINK-3985 (NORAD 52644). STARLINK-3985 can be tracked NOW for your location showing map with azimuth and elevation plus other details from your city location.

Track the satellite on the map from your city or location and see movement details for azimuth, elevation, latitude, longitude, range, height, and movement on the map or in text.







IsCatalogInMostPopularTable: catalog: 52644, numindb: 6
Update: records affected: 1



GetName: 52644 STARLINK-3985

Hit Count: updated at: Thu, 18 Aug 2022 19:56:17 GMT